Overview Statistics Trail Chart Weather Telemetry Raw packets
 

This is the latest recevied weather packets stored in our database for station/object TB1YZC-13. If no packets are shown the sender has not sent any weather packets the latest 10 day(s).

<< 1 2 3 4 >>
Time Temp. Humidity Pressure Rain* Wind** Luminosity Snow
1788669701 20.56° C 68% 1018.3 hPa - - - -
1788669098 20.56° C 70% 1018.3 hPa - - - -
1788668495 20° C 70% 1018.2 hPa - - - -
1788667892 18.89° C 74% 1018.2 hPa - - - -
1788667289 18.89° C 76% 1018.1 hPa - - - -
1788666686 18.33° C 76% 1018.1 hPa - - - -
1788666083 18.33° C 77% 1018 hPa - - - -
1788665479 18.33° C 77% 1018 hPa - - - -
1788664876 18.33° C 76% 1017.9 hPa - - - -
1788664273 18.33° C 76% 1017.8 hPa - - - -
1788663670 18.33° C 76% 1017.7 hPa - - - -
1788663067 18.33° C 77% 1017.7 hPa - - - -
1788662464 18.33° C 77% 1017.7 hPa - - - -
1788661861 18.33° C 76% 1017.8 hPa - - - -
1788661258 18.33° C 76% 1017.8 hPa - - - -
1788660654 18.89° C 76% 1017.9 hPa - - - -
1788660052 18.89° C 75% 1017.8 hPa - - - -
1788659448 18.33° C 77% 1017.8 hPa - - - -
1788658845 18.89° C 76% 1017.8 hPa - - - -
1788658242 18.89° C 75% 1017.8 hPa - - - -
1788657639 18.89° C 77% 1017.8 hPa - - - -
1788657035 19.44° C 76% 1017.9 hPa - - - -
1788656433 19.44° C 77% 1017.7 hPa - - - -
1788655829 19.44° C 77% 1017.8 hPa - - - -
1788655226 19.44° C 77% 1017.7 hPa - - - -

* Rain since midnight (hover to see other rain measurements)
** Current wind speed in m/s (hover to see current wind gust speed)